Location: Cisewo
(53.3833°N, 14.9000°E)
Time: 15:29:12
(UTC+00:00)

NOAA 18 - Pass Details

Date: 21 September 2021
Orbit: 841 x 860 km, 99.0° (Epoch: 25 October)

Event Time Altitude Azimuth Distance (km) Brightness Sun altitude
Exits shadow 20:31:21 62° 243° (WSW) 949 5.4 -28.7°
Maximum altitude 20:31:35 63° 257° (WSW) 943 5.4 -28.7°
Drops below altitude 10° 20:37:03 10° 339° (NNW) 2,482 8.5 -29.3°
Sets 20:39:28 0° 343° (NNW) 3,425 9.4 -29.5°
